Location: *
(50.8160°S, 176.0219°W)
Time: 03:39:04
(UTC+00:00)

UNK - Pass Details

Date: 19 May 2026
Orbit: 653 x 672 km, 98.4° (Epoch: 8 June)

Event Time Altitude Azimuth Distance (km) Brightness Sun altitude
Rises 18:29:24 0° 172° (S) 3,070 7.0 -7.9°
Reaches altitude 10° 18:31:49 10° 181° (S) 2,147 6.1 -7.6°
Maximum altitude 18:35:59 33° 244° (WSW) 1,150 4.4 -7.0°
Drops below altitude 10° 18:40:08 10° 307° (NW) 2,117 6.0 -6.4°
Sets 18:42:30 0° 316° (NW) 3,020 6.9 -6.0°
